This is the latest recevied weather packets stored in our database for station/object LU5DTF-1. If no packets are shown the sender has not sent any weather packets the latest 10 day(s).
| Time | Temp. | Humidity | Pressure | Rain* | Wind** | Luminosity | Snow |
|---|---|---|---|---|---|---|---|
| 1778253599 | 13.89° C | 80% | 994.1 hPa | 0 mm | - | - | - |
| 1778253298 | 13.89° C | 81% | 994.1 hPa | 0 mm | - | - | - |
| 1778252998 | 13.33° C | 82% | 994.2 hPa | 0 mm | - | - | - |
| 1778252099 | 13.89° C | 82% | 994.2 hPa | 0 mm | - | - | - |
| 1778251799 | 13.89° C | 83% | 994.2 hPa | 0 mm | - | - | - |
| 1778251200 | 13.89° C | 81% | 994 hPa | 0 mm | - | - | - |
| 1778250899 | 13.89° C | 82% | 993.9 hPa | 0 mm | - | - | - |
| 1778250599 | 13.33° C | 83% | 993.9 hPa | 0 mm | - | - | - |
| 1778250299 | 13.33° C | 82% | 994 hPa | 0 mm | - | - | - |
| 1778250000 | 13.33° C | 83% | 994.2 hPa | 0 mm | - | - | - |
| 1778249700 | 13.33° C | 85% | 994.2 hPa | 0 mm | - | - | - |
| 1778249399 | 13.33° C | 87% | 994.1 hPa | 0 mm | - | - | - |
| 1778249099 | 13.33° C | 87% | 994.2 hPa | 0 mm | - | - | - |
| 1778248800 | 12.78° C | 86% | 994.2 hPa | 0 mm | - | - | - |
| 1778248499 | 13.33° C | 86% | 994.3 hPa | 0 mm | - | - | - |
| 1778248199 | 13.33° C | 87% | 994.1 hPa | 0 mm | - | - | - |
| 1778247899 | 12.78° C | 88% | 994.1 hPa | 0 mm | - | - | - |
| 1778247599 | 12.78° C | 90% | 994.2 hPa | 0 mm | - | - | - |
| 1778247300 | 12.78° C | 93% | 994.2 hPa | 0 mm | - | - | - |
| 1778247000 | 12.22° C | 94% | 994.1 hPa | 0 mm | - | - | - |
| 1778246699 | 12.22° C | 95% | 993.9 hPa | 0 mm | - | - | - |
| 1778246400 | 12.22° C | 95% | 993.8 hPa | 0 mm | - | - | - |
| 1778246099 | 12.22° C | 95% | 993.9 hPa | 0 mm | - | - | - |
| 1778245799 | 12.22° C | 95% | 993.8 hPa | 0 mm | - | - | - |
| 1778245499 | 12.22° C | 95% | 993.8 hPa | 0 mm | - | - | - |
* Rain latest hour (hover to see other rain measurements)
** Current wind speed in m/s (hover to see current wind gust speed)